IU2RPR-3 Weather Reports


Display with metric or nautical units.
time (UTC)temp
F
wind
direction
speed
MPH
gust
MPH
rain 1hr
in
rain 24hr
in
rain mn
in
humidity
%
barometer
mb
20260506012012 57 0.0 0.0 0.00 0.00 0.00 99 1014.0
20260506005011 57 0.0 0.0 0.00 0.00 0.00 99 1014.4
20260506002009 57 0.0 0.0 0.00 0.00 0.00 99 1014.6
20260505235008 57 0.0 0.0 0.00 0.00 0.00 98 1015.0
20260505232007 57 0.0 0.0 0.00 0.00 0.00 98 1014.9
20260505225005 57 0.0 0.0 0.00 0.00 0.00 99 1015.1
20260505222004 56 0.0 0.0 0.00 0.00 0.00 99 1015.3
20260505215003 57 0.0 0.0 0.00 0.00 0.00 99 1015.6
20260505212002 57 0.0 0.0 0.00 0.00 0.00 96 1015.9
20260505205000 58 0.0 0.0 0.00 0.00 0.00 92 1016.0
20260505201959 57 0.0 0.0 0.00 0.00 0.00 95 1015.9
20260505194958 57 0.0 0.0 0.00 0.00 0.00 95 1015.9
20260505191957 58 0.0 0.0 0.00 0.00 0.00 95 1015.8
20260505185253 57 0.0 0.0 0.00 0.00 0.00 94 1015.6
20260505182251 58 0.0 0.0 0.00 0.00 0.00 95 1015.6
20260505175250 58 0.0 0.0 0.00 0.00 0.00 92 1015.5
20260505172250 58 0.0 0.0 0.00 0.00 0.00 92 1015.5
20260505165248 58 0.0 0.0 0.00 0.00 0.00 93 1015.5
20260505162246 58 0.0 0.0 0.00 0.00 0.00 91 1015.6
20260505152244 58 0.0 0.0 0.00 0.00 0.00 93 1015.9
20260505122235 57 0.0 0.0 0.00 0.00 0.00 97 1016.6
20260505115234 58 0.0 0.0 0.00 0.00 0.00 93 1016.5
20260505112233 58 0.0 0.0 0.00 0.00 0.00 92 1016.5
20260505095229 60 0.0 0.0 0.00 0.00 0.00 85 1016.1
20260505092228 60 0.0 0.0 0.00 0.00 0.00 86 1015.9
20260505085227 59 0.0 0.0 0.00 0.00 0.00 88 1015.7
20260505082225 58 0.0 0.0 0.00 0.00 0.00 87 1016.1
20260505075224 58 0.0 0.0 0.00 0.00 0.00 83 1016.3
20260505072223 59 0.0 0.0 0.00 0.00 0.00 78 1016.4
20260505065222 60 0.0 0.0 0.00 0.00 0.00 74 1016.1
20260505062221 60 0.0 0.0 0.00 0.00 0.00 71 1015.6
20260505055219 61 0.0 0.0 0.00 0.00 0.00 64 1015.5
20260505052218 60 0.0 0.0 0.00 0.00 0.00 58 1015.2
20260505035211 58 0.0 0.0 0.00 0.00 0.00 61 1015.2
20260505032210 59 0.0 0.0 0.00 0.00 0.00 57 1015.2
20260505025209 59 0.0 0.0 0.00 0.00 0.00 56 1015.4
20260505022208 59 0.0 0.0 0.00 0.00 0.00 55 1015.6
20260505015206 58 0.0 0.0 0.00 0.00 0.00 54 1015.8